[[{"header":{"parameterUnit":"m.s-1","parameterCategory":1,"la1":30.2991,"la2":30.254,"lo1":-89.0895,"lo2":-89.0444,"dy":0.0017,"dx":0.0017,"nx":28,"ny":28,"refTime":"2024-03-16T03:00:00:Z","depth":0,"parameterNumber":2,"parameterNumberName":"U-component_of_WINDS"},"data":[0,0,0,0,0,0,0,0,0,0,0,0,0,0,0,0,0,0,0,0,0,0,0,0,0,0,0,0,0,0,0,0,0,0,0,0,0,0,0,0,0,0,0,0,0,0,0,0,0,0,0,0,0,0,0,0,0,0,-0.4025,-0.4025,0,-0.4023,-0.4023,-0.4023,-0.4006,-0.4006,-0.4005,-0.4005,-0.4003,-0.4003,-0.4003,0,0,0,0,0,0,0,0,0,0,0,0,0,-0.4011,-0.4012,-0.4025,-0.4025,-0.4025,-0.4023,-0.4023,-0.4023,-0.4006,-0.4006,-0.4005,-0.4005,-0.4003,-0.4003,-0.4003,0,0,0,0,0,0,0,0,0,0,0,0,0,-0.4014,-0.4012,-0.4025,-0.4016,-0.4015,-0.4023,-0.4023,-0.4023,-0.4006,-0.4006,-0.4005,-0.4005,-0.4003,-0.4003,-0.4004,-0.4019,0,0,-0.4005,-0.4005,0,0,0,0,0,0,0,0,-0.4014,-0.4015,-0.4018,-0.4017,-0.4016,-0.4014,-0.4018,-0.4022,-0.4007,-0.401,-0.4005,-0.4004,-0.4007,-0.4007,-0.4008,-0.4019,-0.4019,-0.4005,-0.4005,-0.4006,-0.4006,0,0,0,0,0,0,0,-0.4014,-0.4015,-0.4024,-0.4018,-0.4017,-0.4012,-0.4011,-0.4018,-0.4012,-0.401,-0.4008,-0.4008,-0.4007,-0.4008,-0.4008,-0.4019,-0.4005,-0.4006,-0.4006,-0.4006,-0.4041,-0.4042,0,0,0,0,0,0,-0.4015,-0.4015,-0.4024,-0.4024,-0.4013,-0.4013,-0.4012,-0.4016,-0.4012,-0.4011,-0.4009,-0.4008,-0.4007,-0.4008,-0.4008,-0.4026,-0.4006,-0.4006,-0.4006,-0.404,-0.4041,-0.4042,0,0,0,0,0,0,-0.4015,-0.4016,-0.4024,-0.4019,-0.402,-0.4013,-0.4017,-0.4016,-0.4017,-0.4011,-0.401,-0.4012,-0.4007,-0.4007,-0.4016,-0.4025,-0.4006,-0.4007,-0.404,-0.4041,-0.4042,-0.4062,0,0,0,0,0,0,-0.4015,-0.4016,-0.4023,-0.4019,-0.402,-0.4034,-0.4018,-0.4016,-0.4018,-0.4016,-0.4014,-0.4013,-0.4006,-0.4016,-0.4017,-0.4026,-0.4007,-0.4039,-0.404,-0.4041,-0.406,-0.4063,-0.4066,0,0,0,0,0,-0.4014,-0.4029,-0.4023,-0.4024,-0.4028,-0.4034,-0.4035,-0.4027,-0.4019,-0.4025,-0.4021,-0.4013,-0.4024,-0.4017,-0.4018,-0.4027,-0.4038,-0.404,-0.4041,-0.4059,-0.4062,-0.4066,0,0,0,0,0,0,-0.4034,-0.4028,-0.4022,-0.4036,-0.4036,-0.4031,-0.4039,-0.4032,-0.4034,-0.4032,-0.4022,-0.4022,-0.4032,-0.403,-0.4022,-0.4041,-0.4029,-0.4031,-0.4042,-0.4046,-0.4049,-0.4049,-0.4008,0,0,0,0,0,-0.404,-0.4045,-0.404,-0.4053,-0.4053,-0.4046,-0.4048,-0.4042,-0.4041,-0.4041,-0.4038,-0.4037,-0.404,-0.4043,-0.4045,-0.4059,-0.4058,-0.4066,-0.4068,-0.4071,-0.4073,-0.4079,-0.4082,-0.4047,-0.4047,-0.4047,0,0,-0.4052,-0.405,-0.4054,-0.4056,-0.4055,-0.4061,-0.4046,-0.4053,-0.4056,-0.4042,-0.4051,-0.4048,-0.4046,-0.4057,-0.4062,-0.4056,-0.4082,-0.4073,-0.4074,-0.4075,-0.408,-0.4084,-0.4087,-0.4048,-0.4047,-0.4047,0,0,-0.4078,-0.4076,-0.4087,-0.4085,-0.4084,-0.4079,-0.4081,-0.4078,-0.4075,-0.4083,-0.4072,-0.4076,-0.4082,-0.4081,-0.4081,-0.4104,-0.4096,-0.4105,-0.412,-0.4126,-0.4128,-0.4131,-0.4139,-0.4142,-0.4106,-0.4106,-0.4106,0,-0.4093,-0.4102,-0.4093,-0.41,-0.4101,-0.4087,-0.4097,-0.4096,-0.4096,-0.4096,-0.4089,-0.4096,-0.4093,-0.4104,-0.4109,-0.411,-0.4111,-0.4106,-0.4129,-0.4131,-0.4133,-0.414,-0.4143,-0.4107,-0.4107,-0.4107,-0.4107,0,-0.4121,-0.4126,-0.4135,-0.4134,-0.4136,-0.4144,-0.4136,-0.4138,-0.4131,-0.4127,-0.4134,-0.4131,-0.4132,-0.4134,-0.4128,-0.4143,-0.4139,-0.413,-0.4119,-0.4138,-0.4145,-0.4147,-0.4109,-0.4109,-0.4108,-0.4108,0,0,-0.4161,-0.4154,-0.4157,-0.4156,-0.4152,-0.4156,-0.4163,-0.4164,-0.4166,-0.4165,-0.417,-0.4175,-0.4166,-0.4166,-0.4159,-0.4164,-0.4182,-0.4155,-0.4155,-0.416,-0.4197,-0.4205,-0.4208,-0.4176,-0.4176,-0.4177,-0.4198,0,-0.4186,-0.4198,-0.4189,-0.4202,-0.4207,-0.4193,-0.4199,-0.4196,-0.4192,-0.4194,-0.4188,-0.4192,-0.418,-0.418,-0.4184,-0.4179,-0.4189,-0.4177,-0.418,-0.4181,-0.4182,-0.4212,-0.422,-0.424,-0.42,-0.4201,-0.4201,0,-0.4217,-0.4217,-0.4231,-0.4225,-0.4226,-0.4232,-0.4231,-0.4234,-0.423,-0.4226,-0.4225,-0.4216,-0.4222,-0.4209,-0.4215,-0.4207,-0.4208,-0.4205,-0.4205,-0.4206,-0.4193,-0.4214,-0.4246,-0.4249,-0.4205,-0.4205,-0.4204,0,-0.4245,-0.4249,-0.4257,-0.4257,-0.425,-0.4254,-0.4251,-0.4246,-0.4247,-0.4246,-0.4246,-0.4246,-0.4246,-0.4245,-0.4236,-0.4227,-0.4243,-0.423,-0.424,-0.424,-0.4245,-0.4245,-0.4278,-0.4244,-0.4244,-0.4244,-0.4244,0,-0.4274,-0.4284,-0.427,-0.4275,-0.4284,-0.4273,-0.4282,-0.4277,-0.4273,-0.4277,-0.4264,-0.4267,-0.4254,-0.4256,-0.4248,-0.4255,-0.4255,-0.4251,-0.4249,-0.4253,-0.4253,-0.4254,-0.4253,-0.4244,-0.4244,-0.4244,-0.4244,0,-0.4308,-0.4299,-0.4308,-0.4299,-0.4297,-0.4305,-0.4297,-0.4301,-0.4295,-0.4299,-0.4299,-0.4289,-0.429,-0.428,-0.428,-0.4274,-0.4284,-0.4279,-0.4286,-0.4285,-0.4295,-0.4294,-0.4331,-0.4335,-0.4297,-0.4297,-0.4298,0,-0.4328,-0.4335,-0.4327,-0.4328,-0.4326,-0.4328,-0.4329,-0.4317,-0.4317,-0.4313,-0.4317,-0.4317,-0.4316,-0.4319,-0.4311,-0.431,-0.4305,-0.4317,-0.4305,-0.4308,-0.4305,-0.4306,-0.4306,-0.4321,-0.4321,-0.4322,-0.4322,0,-0.4364,-0.4359,-0.436,-0.4359,-0.436,-0.4358,-0.4356,-0.4358,-0.4344,-0.4346,-0.4346,-0.4346,-0.4344,-0.4344,-0.4341,-0.4337,-0.4327,-0.4326,-0.4328,-0.4332,-0.4336,-0.4334,-0.4294,-0.4325,-0.4325,-0.4325,-0.4325,-0.4324,-0.4392,-0.4397,-0.4392,-0.4393,-0.4389,-0.4387,-0.439,-0.4383,-0.4384,-0.4382,-0.4374,-0.4376,-0.437,-0.4365,-0.4362,-0.4363,-0.4357,-0.436,-0.4361,-0.4362,-0.4364,-0.4335,-0.4362,-0.4362,-0.4362,-0.4362,-0.4362,0,-0.4428,-0.4423,-0.4424,-0.4421,-0.4422,-0.4411,-0.4407,-0.4409,-0.441,-0.4406,-0.4405,-0.4405,-0.4404,-0.4396,-0.4393,-0.4396,-0.4391,-0.4396,-0.4396,-0.4395,-0.437,-0.4368,-0.4399,-0.4399,-0.4399,-0.4399,-0.4399,-0.4399,-0.4447,-0.4454,-0.4448,-0.4452,-0.4447,-0.4449,-0.4448,-0.4445,-0.4441,-0.4442,-0.4442,-0.4435,-0.4429,-0.4426,-0.4424,-0.4421,-0.4421,-0.4428,-0.4423,-0.44,-0.4397,-0.4393,-0.4392,-0.4427,-0.4428,-0.4448,-0.4449,-0.4449]},{"header":{"parameterUnit":"m.s-1","parameterCategory":1,"la1":30.2991,"la2":30.254,"lo1":-89.0895,"lo2":-89.0444,"dy":0.0017,"dx":0.0017,"nx":28,"ny":28,"refTime":"2024-03-16T03:00:00:Z","depth":0,"parameterNumber":3,"parameterNumberName":"V-component_of_WINDS"},"data":[0,0,0,0,0,0,0,0,0,0,0,0,0,0,0,0,0,0,0,0,0,0,0,0,0,0,0,0,0,0,0,0,0,0,0,0,0,0,0,0,0,0,0,0,0,0,0,0,0,0,0,0,0,0,0,0,0,0,-4.8149,-4.815,0,-4.8289,-4.8291,-4.8293,-4.8272,-4.827,-4.8267,-4.8265,-4.8402,-4.8408,-4.8414,0,0,0,0,0,0,0,0,0,0,0,0,0,-4.7856,-4.7861,-4.8148,-4.815,-4.8152,-4.8289,-4.8291,-4.8293,-4.8272,-4.827,-4.8267,-4.8264,-4.8401,-4.8407,-4.8414,0,0,0,0,0,0,0,0,0,0,0,0,0,-4.7988,-4.7863,-4.8148,-4.8159,-4.8161,-4.8289,-4.8291,-4.8294,-4.8273,-4.827,-4.8266,-4.8263,-4.8398,-4.8407,-4.8415,-4.854,0,0,-4.8442,-4.8446,0,0,0,0,0,0,0,0,-4.7981,-4.7999,-4.8155,-4.8158,-4.8161,-4.826,-4.8238,-4.8376,-4.8274,-4.823,-4.8265,-4.8261,-4.8357,-4.8369,-4.8403,-4.8546,-4.8552,-4.8443,-4.8448,-4.8452,-4.8455,0,0,0,0,0,0,0,-4.7971,-4.7993,-4.8204,-4.8157,-4.8161,-4.8154,-4.8169,-4.8264,-4.8312,-4.8234,-4.8233,-4.825,-4.8358,-4.8395,-4.8406,-4.8554,-4.8443,-4.8451,-4.8456,-4.8459,-4.8807,-4.8811,0,0,0,0,0,0,-4.796,-4.7985,-4.82,-4.8208,-4.806,-4.8162,-4.8179,-4.8231,-4.8311,-4.8319,-4.8253,-4.8249,-4.8382,-4.8396,-4.8411,-4.8563,-4.8452,-4.846,-4.8465,-4.8803,-4.8808,-4.8812,0,0,0,0,0,0,-4.7954,-4.798,-4.8194,-4.8097,-4.8123,-4.8171,-4.823,-4.8236,-4.8273,-4.8325,-4.8333,-4.8282,-4.8379,-4.8399,-4.8509,-4.8567,-4.8464,-4.8472,-4.8798,-4.8805,-4.881,-4.8867,0,0,0,0,0,0,-4.7946,-4.7978,-4.8027,-4.8098,-4.8129,-4.8291,-4.8234,-4.8241,-4.8289,-4.8284,-4.8355,-4.8363,-4.8378,-4.8496,-4.8517,-4.8578,-4.8479,-4.8793,-4.8801,-4.8808,-4.886,-4.8875,-4.8887,0,0,0,0,0,-4.7936,-4.8036,-4.803,-4.8056,-4.8192,-4.8295,-4.8312,-4.833,-4.8294,-4.8343,-4.8376,-4.836,-4.8557,-4.8507,-4.8531,-4.8595,-4.879,-4.8799,-4.8808,-4.8855,-4.8872,-4.8886,0,0,0,0,0,0,-4.7968,-4.8045,-4.8039,-4.8166,-4.8224,-4.8291,-4.8354,-4.8347,-4.8416,-4.8408,-4.8425,-4.8441,-4.8553,-4.8584,-4.8527,-4.872,-4.8668,-4.8682,-4.8696,-4.8712,-4.8725,-4.8715,-4.8486,0,0,0,0,0,-4.799,-4.807,-4.8132,-4.8237,-4.8267,-4.8306,-4.8351,-4.836,-4.842,-4.8444,-4.8486,-4.8543,-4.8618,-4.8666,-4.8738,-4.8864,-4.8879,-4.892,-4.8933,-4.8944,-4.8956,-4.9026,-4.9045,-4.8842,-4.8842,-4.8841,0,0,-4.8036,-4.8088,-4.8137,-4.8245,-4.8292,-4.8372,-4.8327,-4.8413,-4.8472,-4.8456,-4.8564,-4.8597,-4.8661,-4.878,-4.8835,-4.881,-4.9015,-4.8955,-4.8963,-4.897,-4.9037,-4.9056,-4.9073,-4.8848,-4.8847,-4.8846,0,0,-4.8162,-4.8209,-4.8303,-4.8351,-4.8423,-4.8448,-4.847,-4.8539,-4.856,-4.8669,-4.8659,-4.8728,-4.8857,-4.8904,-4.8944,-4.9088,-4.9076,-4.9111,-4.9179,-4.9247,-4.9263,-4.9277,-4.933,-4.9348,-4.9123,-4.9123,-4.9123,0,-4.8209,-4.8332,-4.8351,-4.844,-4.8488,-4.848,-4.8574,-4.8619,-4.8709,-4.8741,-4.8713,-4.8875,-4.8918,-4.9048,-4.9084,-4.9116,-4.9142,-4.9103,-4.926,-4.9274,-4.9288,-4.9338,-4.9357,-4.9127,-4.9126,-4.9126,-4.9125,0,-4.8388,-4.8473,-4.854,-4.8631,-4.8686,-4.8776,-4.8808,-4.8861,-4.8865,-4.8892,-4.9002,-4.9054,-4.9136,-4.9167,-4.9171,-4.9298,-4.9281,-4.9256,-4.9205,-4.9311,-4.9358,-4.9377,-4.9132,-4.9131,-4.913,-4.9129,0,0,-4.8538,-4.8639,-4.8663,-4.8705,-4.8783,-4.8849,-4.8938,-4.9022,-4.9067,-4.9129,-4.9205,-4.9314,-4.9292,-4.9338,-4.9346,-4.9406,-4.9518,-4.9374,-4.9375,-4.9399,-4.9662,-4.9681,-4.9703,-4.951,-4.9513,-4.9516,-4.9657,0,-4.8672,-4.8834,-4.8854,-4.8997,-4.9076,-4.907,-4.9148,-4.9203,-4.9231,-4.9301,-4.933,-4.9408,-4.9372,-4.94,-4.9459,-4.9492,-4.9571,-4.9482,-4.9579,-4.9582,-4.9565,-4.9728,-4.9748,-4.9879,-4.9675,-4.9678,-4.9681,0,-4.885,-4.8921,-4.9073,-4.9142,-4.9175,-4.9246,-4.9324,-4.9391,-4.9453,-4.9469,-4.9522,-4.9523,-4.9614,-4.9558,-4.9684,-4.9623,-4.9663,-4.9685,-4.9691,-4.9701,-4.9639,-4.9743,-4.992,-4.994,-4.971,-4.9707,-4.9705,0,-4.8945,-4.9078,-4.9187,-4.9222,-4.9305,-4.9355,-4.9391,-4.945,-4.9499,-4.9566,-4.9598,-4.9674,-4.9716,-4.9773,-4.9794,-4.9752,-4.9919,-4.9865,-4.9934,-4.9934,-4.997,-4.9968,-5.0157,-4.9995,-4.9994,-4.9994,-4.9994,0,-4.9094,-4.9187,-4.9231,-4.9298,-4.9402,-4.9423,-4.9525,-4.9559,-4.9612,-4.9684,-4.9681,-4.9748,-4.9771,-4.9841,-4.9858,-4.996,-4.9978,-4.9992,-4.9996,-4.9994,-4.9992,-5.0021,-5.0013,-4.9999,-4.9998,-4.9997,-4.9996,0,-4.9218,-4.9252,-4.937,-4.9439,-4.9459,-4.9533,-4.9591,-4.9655,-4.9682,-4.9773,-4.9795,-4.9837,-4.992,-4.9947,-5.0045,-5.0057,-5.0176,-5.017,-5.0156,-5.0157,-5.0225,-5.0218,-5.0441,-5.0471,-5.0287,-5.0289,-5.029,0,-4.9311,-4.9384,-4.9462,-4.9511,-4.955,-4.9629,-4.968,-4.9703,-4.9755,-4.9833,-4.9887,-4.997,-5.0037,-5.0169,-5.0207,-5.0283,-5.028,-5.0353,-5.0291,-5.0287,-5.0283,-5.0279,-5.0286,-5.0364,-5.0366,-5.0368,-5.0369,0,-4.9473,-4.9487,-4.9561,-4.9642,-4.9704,-4.9768,-4.9829,-4.9869,-4.99,-4.9959,-5.0046,-5.0098,-5.0201,-5.0283,-5.036,-5.0395,-5.0388,-5.0388,-5.0408,-5.0407,-5.0397,-5.0405,-5.0189,-5.0383,-5.0382,-5.0381,-5.038,-5.0379,-4.9586,-4.965,-4.9716,-4.9799,-4.9849,-4.9907,-4.9971,-5.0007,-5.008,-5.0168,-5.0175,-5.0269,-5.0328,-5.0432,-5.0471,-5.0543,-5.0522,-5.0551,-5.0558,-5.0566,-5.0572,-5.0384,-5.0557,-5.0556,-5.0556,-5.0555,-5.0555,0,-4.9748,-4.9791,-4.9867,-4.9955,-5.0021,-5.001,-5.0078,-5.0133,-5.0216,-5.0274,-5.0341,-5.044,-5.052,-5.0564,-5.0643,-5.0692,-5.0691,-5.0712,-5.0709,-5.0718,-5.0585,-5.0561,-5.0712,-5.0712,-5.0712,-5.0712,-5.0712,-5.0712,-4.9841,-4.995,-4.9971,-5.0104,-5.0145,-5.0239,-5.0278,-5.0331,-5.0378,-5.049,-5.0557,-5.0587,-5.0639,-5.0722,-5.0794,-5.0805,-5.0834,-5.0859,-5.0867,-5.0743,-5.0727,-5.0712,-5.0688,-5.0865,-5.0865,-5.0994,-5.0995,-5.0996]}]]